Вернуться в каталог

COSMOS 249 DEB

АктивенLEO
NORAD 18468·DEBRIS·🇷🇺 Russia

Запущен Oct 20, 1968 с Baikonur Cosmodrome

Loading…

Ближайшие Пролёты (ближайшие 24 часа)

TLE

СвежийSource: Space-Track

Эпоха: Sep 14, 2026, 01:56 UTC

1 18468U 68091DD  26257.08074761  .00000165  00000-0  28699-3 0  9995
2 18468  62.2521 293.9357 0775606 106.6592 262.0941 12.82252662610877

Отслеживайте COSMOS 249 DEB в реальном времени с AllMySat

Download on the App Store